RH
82 86 91 91 91 91 92 92 90 88 86 85 83 82 82 81 82 84 82 76 75 72 68 65 66 67 65 66 68 75 77 77 75 74 72 66 66 68 74 75 78 73 77
84 81 90 90 91 91 92 91 89 87 85 84 82 82 82 83 85 84 79 75 74 69 65 61 61 63 67 70 74 78 78 75 75 75 71 65 68 70 69 73 77 73 77
81 86 83 89 91 90 90 90 87 85 84 82 81 82 84 84 84 83 77 74 73 70 62 58 60 62 64 69 77 77 76 74 73 74 70 61 62 69 72 70 71 71 73
78 71 88 89 90 90 90 88 85 83 83 81 80 83 84 83 83 83 76 75 74 71 61 57 59 65 70 75 78 76 72 70 71 68 60 61 59 65 67 69 67 68 68
80 78 84 90 89 90 89 86 84 84 82 80 81 82 82 81 82 83 78 76 74 70 61 58 63 69 74 77 75 73 76 71 70 63 67 69 65 63 67 68 67 68 69
86 82 91 92 85 90 88 86 86 84 82 81 81 82 82 82 82 83 80 76 75 70 62 61 66 71 77 76 73 74 68 69 67 66 70 62 61 64 65 67 68 64 71
96 96 93 92 88 94 92 86 85 84 84 83 83 84 84 84 84 84 82 78 76 73 68 67 69 75 76 73 73 75 71 68 58 67 74 71 62 62 64 65 65 65 63
97 96 96 95 90 97 97 89 86 86 86 85 86 87 88 87 86 86 85 80 80 79 80 78 78 76 73 70 74 76 80 65 56 63 68 72 64 61 63 64 65 66 66
96 96 97 97 96 98 95 92 90 88 88 89 88 88 90 91 90 89 86 84 84 83 82 80 79 76 71 69 70 72 77 68 58 58 55 69 61 59 60 62 63 64 65
98 97 96 96 95 94 94 94 94 92 92 90 88 88 89 91 91 89 87 84 83 82 81 80 80 74 68 63 62 68 73 68 62 67 72 69 62 58 58 61 62 64 64
98 98 95 94 92 92 88 92 91 90 89 86 84 84 83 82 82 79 84 85 84 83 82 81 78 72 68 60 58 64 63 60 71 80 87 74 63 59 58 60 61 62 64
98 99 96 94 92 88 86 92 92 85 83 79 74 70 64 74 77 78 85 87 85 83 81 80 77 72 66 55 60 62 53 64 74 85 90 76 65 60 60 60 61 62 63
98 97 95 93 92 86 90 87 88 92 80 73 72 70 73 75 79 83 84 87 90 84 78 78 76 64 59 63 58 57 48 55 67 75 81 76 66 64 62 60 61 62 62
96 96 91 90 90 91 69 76 87 89 77 79 75 75 77 84 72 78 76 78 76 80 69 69 70 68 64 54 54 50 41 47 63 69 78 73 69 62 64 61 61 62 61
95 91 89 89 92 92 92 92 91 92 76 76 86 80 70 74 76 70 73 71 69 75 68 72 72 65 59 55 54 45 42 40 54 62 74 68 66 56 54 63 61 62 60
95 97 93 93 92 89 92 83 88 90 70 76 74 72 75 77 86 75 75 71 77 68 71 73 68 64 62 56 51 41 40 43 43 62 62 68 67 65 56 51 60 64 61
93 92 91 89 86 85 88 86 87 91 74 77 67 71 72 72 73 77 89 86 88 78 72 68 70 68 67 59 50 44 42 41 40 40 60 66 75 73 73 70 58 67 63
88 90 86 80 89 87 88 91 79 72 77 73 73 77 70 71 75 79 86 85 91 77 73 73 74 73 68 63 58 50 51 46 39 37 49 64 67 73 77 72 72 66 64
82 84 87 88 87 86 82 75 69 74 77 75 73 74 72 72 74 77 83 84 80 78 78 73 73 72 74 65 53 56 53 54 44 36 44 52 54 77 81 74 72 69 60
78 82 85 84 81 82 83 66 72 70 75 77 75 72 78 74 76 84 87 90 89 81 79 82 77 76 70 61 39 45 58 56 57 55 47 42 49 59 73 76 82 77 70
86 83 82 82 74 76 81 67 62 61 68 72 74 64 72 77 81 83 92 86 92 83 81 79 79 71 64 60 57 62 66 66 60 60 59 53 48 44 50 63 66 61 72
81 78 76 73 71 69 84 50 50 61 70 66 65 67 68 77 79 87 90 90 90 90 86 84 76 76 69 65 62 81 78 75 75 65 66 58 57 52 49 44 48 52 66
74 71 64 61 62 63 77 69 59 63 69 71 73 66 67 76 82 85 87 92 93 95 92 87 81 71 73 75 70 76 84 83 76 74 71 68 61 64 61 54 50 46 52
66 65 61 56 55 59 70 72 66 72 66 60 64 72 85 80 82 82 84 87 91 94 92 92 83 80 72 68 79 68 74 72 70 72 66 66 71 64 65 65 59 54 52
61 62 63 59 58 60 68 68 78 81 63 64 58 77 82 92 90 89 91 94 91 89 93 91 85 79 81 80 78 76 77 74 72 70 80 65 72 72 68 70 69 65 55
58 64 64 64 64 62 65 66 74 83 79 68 76 73 91 95 96 93 94 95 92 96 94 90 83 81 84 82 76 74 75 75 71 77 80 78 66 63 67 67 76 69 63
Wind_Speed
9 10 12 16 14 19 22 22 21 21 20 21 22 22 22 22 22 23 24 23 22 22 24 23 22 23 24 24 22 21 20 23 23 22 22 25 25 24 23 22 20 17 22
11 12 14 14 15 17 20 21 22 23 22 21 22 22 21 21 21 24 23 22 21 22 24 22 22 22 22 21 19 17 17 22 21 23 21 24 24 23 23 21 20 19 23
11 21 7 18 17 17 20 21 22 22 22 22 22 22 22 21 20 22 24 22 22 21 23 22 21 20 20 18 15 13 8 4 10 20 20 10 13 22 22 21 21 22 22
14 14 23 16 18 19 20 21 22 23 23 22 22 22 22 21 20 22 23 22 21 21 22 20 19 17 16 14 13 11 17 26 20 19 11 9 13 21 20 20 21 21 21
8 14 22 24 21 19 19 20 20 22 22 22 22 22 22 21 21 21 22 21 21 21 21 19 17 15 13 12 13 12 14 21 23 16 10 7 8 16 20 19 18 19 20
4 9 17 34 25 20 21 22 21 21 21 22 22 21 21 21 21 20 21 21 20 20 20 17 14 13 12 12 10 10 19 21 20 11 8 12 9 18 19 19 18 19 20
10 9 13 18 21 15 17 20 21 21 20 21 21 22 21 21 20 18 19 20 19 18 18 16 13 11 10 9 9 17 15 18 14 10 8 7 9 18 18 17 17 18 18
11 9 10 21 23 20 16 18 20 20 19 20 20 20 20 19 19 18 19 20 18 17 15 13 10 9 10 10 11 13 14 13 14 11 9 6 15 17 17 16 17 18 17
11 13 11 11 18 17 15 18 17 19 21 20 19 19 20 18 19 19 19 18 18 16 15 13 11 8 9 10 11 12 14 16 9 8 10 5 15 15 15 15 15 16 17
10 11 14 14 14 16 15 20 16 17 20 21 20 18 18 17 17 17 16 16 16 15 14 13 10 8 8 9 11 11 15 15 8 8 5 6 13 13 13 13 13 15 15
9 10 12 11 13 10 14 18 14 17 17 17 17 19 13 8 10 10 12 14 14 14 13 12 9 8 7 7 7 10 11 5 7 4 3 11 11 11 11 12 12 12 13
9 10 11 11 12 15 11 15 13 9 7 7 9 8 8 7 7 8 11 14 11 11 11 10 7 6 5 4 3 7 5 5 6 4 3 8 9 9 10 10 10 11 11
8 8 9 10 5 8 7 6 7 6 5 7 8 6 7 8 6 5 3 4 4 5 3 4 4 2 1 3 4 5 6 5 4 3 5 9 5 8 9 9 9 10 10
10 10 10 10 7 5 6 5 5 6 6 4 4 7 7 6 6 4 3 4 4 3 5 4 3 3 5 6 6 5 6 5 4 3 3 9 8 5 8 8 8 9 9
12 13 13 10 8 5 6 4 5 4 5 4 5 6 8 6 6 6 5 5 5 5 4 4 4 4 5 5 5 6 4 6 6 3 2 7 8 6 3 8 8 9 10
11 11 13 13 10 11 6 9 4 3 5 4 4 4 6 5 5 4 5 6 4 6 4 5 5 5 4 5 5 4 4 5 6 6 4 2 5 5 4 4 7 10 10
9 13 14 16 15 14 12 11 6 4 3 4 2 3 5 5 5 5 5 5 5 5 7 5 4 4 4 3 5 5 4 4 3 5 4 3 3 4 3 3 5 10 10
13 14 12 11 12 13 11 9 10 7 3 4 3 3 3 2 3 4 4 4 5 4 5 5 4 3 4 5 4 3 4 4 5 4 5 4 4 3 4 7 8 6 6
13 16 15 14 13 13 11 9 10 5 3 3 3 3 5 5 5 4 4 4 5 4 5 4 2 3 3 3 5 5 5 4 4 3 5 7 6 5 4 6 8 8 7
12 11 13 12 14 12 10 9 5 4 2 3 4 4 6 5 7 5 4 4 5 4 4 3 4 3 3 4 3 4 4 4 5 4 5 4 5 6 6 5 4 4 9
10 12 13 12 14 11 8 10 8 9 6 3 4 8 8 8 7 6 4 4 5 5 5 6 4 5 2 2 3 2 2 3 5 4 4 4 5 6 7 6 4 4 4
15 14 14 14 14 11 6 10 7 7 3 6 6 7 10 11 9 6 6 5 7 4 5 6 5 2 2 3 4 2 2 3 2 4 3 4 6 5 5 6 5 5 5
17 17 16 17 18 13 9 5 6 5 4 3 4 6 8 11 10 9 9 7 6 4 4 5 6 7 4 2 3 5 1 4 1 3 5 4 5 5 5 6 6 6 7
17 16 18 18 19 15 13 10 14 11 9 7 6 5 6 10 9 10 9 8 8 7 5 5 6 4 5 4 1 1 3 4 2 3 3 3 4 5 6 5 5 6 6
18 18 18 19 19 19 16 16 13 13 9 8 9 7 8 6 8 7 7 7 5 7 6 6 5 5 4 4 4 2 1 2 3 3 3 4 1 4 5 5 5 5 6
20 19 20 22 23 22 22 22 18 14 12 9 9 9 6 4 4 8 5 6 6 6 6 6 5 6 5 4 3 3 2 2 3 3 3 5 4 4 3 4 5 5 5
Wind_Direction
31 128 134 128 130 130 128 123 119 112 108 108 107 104 103 104 103 102 103 102 102 101 97 95 95 95 95 94 92 93 94 91 86 77 72 72 70 67 65 61 60 61 65
153 81 145 134 136 133 124 121 120 118 117 114 110 108 108 108 107 109 108 107 103 102 100 100 100 100 97 94 92 96 103 97 85 84 76 73 72 73 71 66 65 64 64
214 116 196 147 144 136 126 124 122 119 119 116 114 113 112 112 110 111 109 107 105 102 99 98 99 98 94 87 84 81 80 48 69 83 71 66 77 73 70 72 66 66 63
168 153 121 179 145 138 133 128 126 124 122 119 117 116 115 115 111 110 111 110 106 103 103 103 100 94 83 76 76 71 72 77 79 73 69 62 65 72 72 70 69 69 67
164 155 151 158 149 139 133 126 124 122 121 119 119 118 117 118 114 112 114 111 109 108 107 105 96 85 73 60 51 46 65 95 81 73 71 69 71 75 75 75 71 72 74
158 169 172 156 148 146 140 128 127 124 122 123 121 118 120 120 118 117 116 115 112 111 109 104 95 82 68 58 48 37 104 101 94 83 72 73 72 79 78 79 80 78 74
89 115 135 139 129 130 113 127 122 120 121 119 118 120 122 124 124 121 120 115 114 112 111 108 95 80 70 62 52 56 91 101 101 95 86 75 80 81 80 79 80 82 79
106 99 97 117 126 119 144 120 119 118 117 112 113 115 115 121 123 122 120 118 117 114 113 105 92 75 59 45 44 59 70 104 103 105 97 84 84 82 83 83 86 83 84
92 99 103 105 108 116 94 116 110 114 113 107 107 107 105 109 115 117 118 120 119 120 115 110 95 79 63 43 34 29 48 105 102 104 100 91 94 91 90 88 90 89 87
104 103 111 105 108 109 117 82 81 100 107 110 110 104 99 103 108 115 117 121 122 119 117 109 108 98 77 50 37 25 51 92 97 102 103 104 102 99 98 98 94 93 92
97 100 94 101 107 103 120 103 98 96 101 111 110 106 101 107 107 112 120 116 119 121 121 125 135 132 115 85 45 24 66 103 97 96 102 115 113 108 105 105 104 102 99
105 104 106 113 130 132 136 123 118 119 109 106 107 94 108 101 107 112 115 114 120 125 132 135 136 121 92 56 36 42 67 104 100 95 84 108 126 123 115 116 115 113 108
119 122 125 122 130 131 112 125 131 124 113 122 109 110 120 106 98 98 108 103 114 122 122 129 125 112 318 117 74 63 73 80 93 95 114 94 119 139 135 136 132 125 120
113 123 122 119 116 107 115 105 104 116 119 115 107 122 122 100 125 138 141 142 149 178 164 160 157 194 146 118 97 86 84 105 110 106 110 124 115 119 160 153 149 143 135
123 124 122 113 111 88 99 119 108 93 105 124 102 132 128 137 155 159 159 174 177 182 180 167 158 142 107 95 91 94 93 88 124 119 136 156 131 129 134 180 171 169 156
119 113 123 115 104 106 98 108 103 91 114 105 126 90 145 158 164 172 165 196 184 183 173 163 171 144 142 133 111 107 109 100 122 153 148 118 120 128 143 195 203 188 172
116 114 122 122 125 126 116 110 93 331 114 146 152 203 153 164 180 182 179 191 186 184 165 160 139 135 144 140 147 146 129 130 115 100 135 138 92 75 81 80 244 190 186
134 128 126 129 131 133 136 145 169 209 211 139 131 210 215 154 243 191 183 167 186 167 140 142 146 151 171 155 169 177 162 165 139 145 121 156 149 106 80 91 91 134 179
141 145 149 146 143 140 152 174 188 225 224 168 173 212 225 203 236 197 195 199 159 155 138 156 163 157 174 164 176 173 174 144 176 171 157 144 155 155 159 144 136 146 161
146 128 145 152 151 155 157 177 193 237 235 211 216 205 214 218 214 197 193 193 159 157 163 162 171 189 174 182 168 168 187 186 179 176 178 166 149 161 166 165 171 207 210
154 149 154 163 167 160 177 185 197 206 217 206 204 210 204 204 202 192 204 171 176 178 188 188 160 182 162 154 92 18 270 241 208 180 180 192 164 187 158 167 186 190 221
169 168 168 175 191 190 191 190 192 201 212 205 210 214 210 200 199 182 195 192 182 190 195 192 165 143 173 166 141 101 314 339 330 225 188 192 197 188 195 197 204 162 184
177 176 175 177 188 205 195 189 209 232 257 210 226 222 215 196 181 183 196 182 179 183 210 191 169 156 182 214 177 145 117 217 332 323 233 195 208 209 190 187 188 190 180
186 181 177 181 189 199 195 199 209 219 218 215 213 215 195 184 188 193 203 197 173 185 202 193 183 160 143 177 45 133 123 138 166 314 309 234 192 218 216 220 202 212 200
185 187 186 185 191 197 200 204 210 217 220 202 204 195 195 179 190 198 201 211 195 184 177 193 180 178 163 150 148 141 89 165 181 176 265 269 269 223 226 210 212 204 195
187 190 189 194 196 199 197 207 210 206 215 207 202 198 183 180 160 181 219 224 174 173 180 185 183 161 134 119 97 69 124 130 228 183 219 249 216 266 246 244 227 199 200